MIMAN (52900 NORAD) Tracking and Keplerian Element Data

This shows tracking and keplerian element data for the satellite.

Feedback or suggestion? Click here.




ElementValue
Catalog52900
NameMIMAN
Epoch Orbit1210
Epoch Day269.98720517
Epoch Year2022
RAAN57.896
Inclination98.0319
Eccentricity0.0007423
Argument of Perigee322.2908
Mean Anonmoly37.7752
Mean Motion14.58233196
Decay Rate3.41E-06
L11 52900U 22065G 22269.98720517 .00000341 00000+0 83492-4 0 9998
L22 52900 98.0319 57.8960 0007423 322.2908 37.7752 14.58233196 12102

Live tracking and technical data element details for MIMAN (NORAD 52900). MIMAN can be tracked NOW for your location showing map with azimuth and elevation plus other details from your city location.

Track the satellite on the map from your city or location and see movement details for azimuth, elevation, latitude, longitude, range, height, and movement on the map or in text.







IsCatalogInMostPopularTable: catalog: 52900, numindb: 5
Update: records affected: 1



GetName: 52900 MIMAN

Hit Count: updated at: Thu, 06 Oct 2022 05:30:03 GMT